Regional Weather Roundup
Issued by NWS

Current Version | Previous Version | Text Only | Print | Product List | Glossary On
Versions: 1 2 3 4 5 6 7 8 9 10 11 12 13 14 15 16 17 18 19 20 21 22 23 24 25 26 27 28 29 30 31 32 33 34 35 36 37 38 39 40 41 42 43 44 45 46 47 48 49 50
014
ASUS45 KCYS 191510
RWRWY

WYOMING REGIONAL WEATHER ROUNDUP
NATIONAL WEATHER SERVICE CHEYENNE WY
900 AM MDT MON APR 19 2021

NOTE:  "FAIR" INDICATES FEW OR NO CLOUDS BELOW 12,000 FEET
WITH NO SIGNIFICANT WEATHER AND/OR OBSTRUCTIONS TO VISIBILITY.

WYZ001-191600-
YELLOWSTONE NATIONAL PARK

CITY           SKY/WX    TMP DP  RH WIND       PRES   REMARKS
LK YELLOWSTONE NOT AVBL
W YELLOWSTONE  NOT AVBL

$$
WYZ002>013-054>058-071-098>099-191600-
NORTHERN WYOMING

CITY           SKY/WX    TMP DP  RH WIND       PRES   REMARKS
JACKSON        CLOUDY    37  25  61 N18       29.92F WCI  27
CODY           LGT SNOW  23  18  81 N15G21    30.22R WCI  10
GREYBULL       CLOUDY    29  20  69 N12       30.19R WCI  19
WORLAND        SNOW      26  23  88 NW16      30.16R VSB 1/4 WCI  14
SHERIDAN       LGT SNOW  25  21  85 NW10      30.27S FOG     WCI  15
BUFFALO        LGT SNOW  21  18  88 N15       30.20S VSB 3/4 WCI   8
GILLETTE       LGT SNOW  23  20  88 NW7       30.20F VSB 1   WCI  15
HULETT         LGT SNOW  27  21  80 N7        30.21S WCI  19
NEWCASTLE      LGT SNOW  23  19  86 NW8       30.20R WCI  14

$$
WYZ014>020-022>026-101>103-191600-
CENTRAL WYOMING

CITY           SKY/WX    TMP DP  RH WIND       PRES   REMARKS
BIG PINEY      FAIR      35  23  61 E3        29.94F
PINEDALE       FAIR      32  23  69 SE5       29.96F WCI  27
DUBOIS         LGT SNOW  23  21  93 E15G21    29.97F VSB 3/4 WCI  10
LANDER         CLOUDY    26  24  92 E18       30.11R FOG     WCI  13
RIVERTON       LGT SNOW  26  25  96 NE10      30.11S FOG     WCI  16
CASPER         LGT SNOW  23  19  85 NE13      30.12S FOG     WCI  11
DOUGLAS        LGT SNOW  24  19  81 NE12      30.15S WCI  13

$$
WYZ021-027>030-104>119-191600-
SOUTHERN WYOMING

CITY           SKY/WX    TMP DP  RH WIND       PRES   REMARKS
EVANSTON       FAIR      45  17  32 SW21G26   30.00F
KEMMERER       FAIR      43  18  36 W16G24    29.96F
ROCK SPRINGS   FAIR      39  24  55 NE12      29.97F WCI  32
DIXON          FAIR      44  16  32 S17G24    29.99F
RAWLINS        CLOUDY    29  20  69 NE8       30.00F WCI  21
SARATOGA       CLOUDY    32  32 100 NW5       29.99F WCI  27
LARAMIE        FAIR      31  25  78 E7        29.95F WCI  24
CHEYENNE       CLOUDY    25  24  96 NE10      30.03S WCI  15
TORRINGTON     LGT SNOW  27  23  85 E9        30.15S FOG     WCI  18
PINE BLUFFS    CLOUDY    25  25 100 NE13      30.09S FOG     WCI  13

$$




USA.gov is the U.S. government's official web portal to all federal, state and local government web resources and services.